| time (UTC) | temp F | wind direction | speed MPH | gust MPH | rain 1hr in | rain 24hr in | rain mn in | humidity % | barometer mb |
| 20260510025040 | 56 | 0 | 0.0 | 0.0 | 0.00 | 0.00 | 0.00 | 52 | 1013.8 |
| 20260510024540 | 56 | 0 | 0.0 | 0.0 | 0.00 | 0.00 | 0.00 | 52 | 1013.8 |
| 20260510024040 | 56 | 330 | 0.0 | 2.0 | 0.00 | 0.00 | 0.00 | 51 | 1013.8 |
| 20260510023540 | 57 | 343 | 0.0 | 2.0 | 0.00 | 0.00 | 0.00 | 50 | 1014.0 |
| 20260510023040 | 57 | 338 | 0.0 | 2.0 | 0.00 | 0.00 | 0.00 | 47 | 1014.0 |
| 20260510022540 | 58 | 336 | 0.0 | 1.0 | 0.00 | 0.00 | 0.00 | 47 | 1014.0 |
| 20260510022040 | 58 | 333 | 0.0 | 1.0 | 0.00 | 0.00 | 0.00 | 48 | 1014.0 |
| 20260510021540 | 59 | 326 | 0.0 | 1.0 | 0.00 | 0.00 | 0.00 | 47 | 1014.0 |
| 20260510021041 | 59 | 0 | 0.0 | 1.0 | 0.00 | 0.00 | 0.00 | 1 | 1014.0 |
| 20260510020540 | 59 | 329 | 0.0 | 1.0 | 0.00 | 0.00 | 0.00 | 1 | 1014.0 |
| 20260510020040 | 59 | 336 | 0.0 | 1.0 | 0.00 | 0.00 | 0.00 | 1 | 1014.1 |
| 20260510015540 | 60 | 354 | 0.0 | 1.0 | 0.00 | 0.00 | 0.00 | 44 | 1014.1 |
| 20260510015040 | 60 | 0 | 0.0 | 1.0 | 0.00 | 0.00 | 0.00 | 45 | 1014.2 |
| 20260510014540 | 60 | 341 | 0.0 | 1.0 | 0.00 | 0.00 | 0.00 | 43 | 1014.1 |
| 20260510014040 | 60 | 0 | 0.0 | 0.0 | 0.00 | 0.00 | 0.00 | 42 | 1014.2 |
| 20260510013540 | 60 | 322 | 0.0 | 1.0 | 0.00 | 0.00 | 0.00 | 41 | 1014.2 |
| 20260510013040 | 60 | 0 | 0.0 | 1.0 | 0.00 | 0.00 | 0.00 | 42 | 1014.3 |
| 20260510012540 | 60 | 343 | 0.0 | 1.0 | 0.00 | 0.00 | 0.00 | 43 | 1014.3 |
| 20260510012040 | 60 | 19 | 0.0 | 1.0 | 0.00 | 0.00 | 0.00 | 43 | 1014.4 |
| 20260510011540 | 60 | 338 | 0.0 | 2.0 | 0.00 | 0.00 | 0.00 | 45 | 1014.4 |
| 20260510011040 | 61 | 333 | 0.0 | 2.0 | 0.00 | 0.00 | 0.00 | 44 | 1014.4 |
| 20260510010540 | 61 | 336 | 0.0 | 2.0 | 0.00 | 0.00 | 0.00 | 45 | 1014.5 |
| 20260510010041 | 61 | 336 | 0.0 | 1.0 | 0.00 | 0.00 | 0.00 | 44 | 1014.5 |
| 20260510005540 | 62 | 326 | 0.0 | 1.0 | 0.00 | 0.00 | 0.00 | 45 | 1014.5 |
| 20260510005041 | 63 | 336 | 0.0 | 1.0 | 0.00 | 0.00 | 0.00 | 45 | 1014.5 |
| 20260510004540 | 63 | 329 | 0.0 | 1.0 | 0.00 | 0.00 | 0.00 | 47 | 1014.6 |
| 20260510004040 | 63 | 292 | 0.0 | 1.0 | 0.00 | 0.00 | 0.00 | 47 | 1014.6 |
| 20260510003540 | 63 | 0 | 0.0 | 0.0 | 0.00 | 0.00 | 0.00 | 47 | 1014.6 |
| 20260510003040 | 63 | 338 | 0.0 | 0.0 | 0.00 | 0.00 | 0.00 | 48 | 1014.6 |
| 20260510002540 | 63 | 0 | 0.0 | 0.0 | 0.00 | 0.00 | 0.00 | 48 | 1014.6 |
| 20260510002040 | 63 | 0 | 0.0 | 0.0 | 0.00 | 0.00 | 0.00 | 49 | 1014.7 |
| 20260510001540 | 63 | 0 | 0.0 | 0.0 | 0.00 | 0.00 | 0.00 | 48 | 1014.7 |
| 20260510001041 | 63 | 0 | 0.0 | 0.0 | 0.00 | 0.00 | 0.00 | 48 | 1014.7 |
| 20260510000542 | 63 | 0 | 0.0 | 0.0 | 0.00 | 0.00 | 0.00 | 48 | 1014.7 |
| 20260510000040 | 63 | 0 | 0.0 | 0.0 | 0.00 | 0.00 | 0.00 | 49 | 1014.7 |
| 20260509235540 | 63 | 0 | 0.0 | 1.0 | 0.00 | 0.00 | 0.00 | 48 | 1014.8 |
| 20260509235040 | 63 | 0 | 0.0 | 1.0 | 0.00 | 0.00 | 0.00 | 48 | 1014.7 |
| 20260509234540 | 63 | 301 | 0.0 | 1.0 | 0.00 | 0.00 | 0.00 | 48 | 1014.8 |
| 20260509234040 | 63 | 0 | 0.0 | 0.0 | 0.00 | 0.00 | 0.00 | 47 | 1015.0 |
| 20260509233540 | 63 | 0 | 0.0 | 3.0 | 0.00 | 0.00 | 0.00 | 46 | 1014.8 |
| 20260509233040 | 63 | 0 | 0.0 | 3.0 | 0.00 | 0.00 | 0.00 | 46 | 1015.0 |
| 20260509232541 | 63 | 357 | 0.0 | 3.0 | 0.00 | 0.00 | 0.00 | 47 | 1015.1 |
| 20260509232040 | 63 | 0 | 0.0 | 2.0 | 0.00 | 0.00 | 0.00 | 46 | 1015.1 |
| 20260509231540 | 64 | 329 | 0.0 | 2.0 | 0.00 | 0.00 | 0.00 | 46 | 1015.3 |
| 20260509231041 | 63 | 302 | 0.0 | 2.0 | 0.00 | 0.00 | 0.00 | 46 | 1015.3 |
| 20260509230540 | 64 | 0 | 0.0 | 0.0 | 0.00 | 0.00 | 0.00 | 46 | 1015.4 |
| 20260509230040 | 64 | 345 | 0.0 | 2.0 | 0.00 | 0.00 | 0.00 | 46 | 1015.4 |
| 20260509225540 | 64 | 331 | 0.0 | 2.0 | 0.00 | 0.00 | 0.00 | 46 | 1015.4 |
| 20260509225040 | 64 | 305 | 1.0 | 2.0 | 0.00 | 0.00 | 0.00 | 46 | 1015.5 |
| 20260509224540 | 64 | 310 | 0.0 | 3.0 | 0.00 | 0.00 | 0.00 | 44 | 1015.4 |
| 20260509224040 | 64 | 46 | 0.0 | 3.0 | 0.00 | 0.00 | 0.00 | 44 | 1015.5 |
| 20260509223540 | 64 | 42 | 0.0 | 3.0 | 0.00 | 0.00 | 0.00 | 45 | 1015.5 |
| 20260509223040 | 64 | 22 | 0.0 | 1.0 | 0.00 | 0.00 | 0.00 | 45 | 1015.5 |
| 20260509222540 | 64 | 0 | 0.0 | 0.0 | 0.00 | 0.00 | 0.00 | 46 | 1015.5 |
| 20260509222040 | 63 | 0 | 0.0 | 3.0 | 0.00 | 0.00 | 0.00 | 46 | 1015.6 |
| 20260509221540 | 63 | 57 | 0.0 | 3.0 | 0.00 | 0.00 | 0.00 | 46 | 1015.6 |
| 20260509221040 | 63 | 30 | 0.0 | 3.0 | 0.00 | 0.00 | 0.00 | 47 | 1015.5 |
| 20260509220540 | 63 | 37 | 1.0 | 3.0 | 0.00 | 0.00 | 0.00 | 48 | 1015.6 |
| 20260509220040 | 62 | 42 | 0.0 | 3.0 | 0.00 | 0.00 | 0.00 | 47 | 1015.9 |
| 20260509215540 | 62 | 61 | 0.0 | 2.0 | 0.00 | 0.00 | 0.00 | 48 | 1016.0 |
| 20260509215040 | 62 | 49 | 0.0 | 4.0 | 0.00 | 0.00 | 0.00 | 47 | 1016.0 |
| 20260509214540 | 62 | 44 | 0.0 | 4.0 | 0.00 | 0.00 | 0.00 | 48 | 1016.1 |
| 20260509214040 | 62 | 50 | 0.0 | 4.0 | 0.00 | 0.00 | 0.00 | 47 | 1016.1 |
| 20260509213540 | 62 | 310 | 0.0 | 3.0 | 0.00 | 0.00 | 0.00 | 47 | 1016.3 |
| 20260509213040 | 62 | 22 | 0.0 | 2.0 | 0.00 | 0.00 | 0.00 | 48 | 1016.3 |
| 20260509212542 | 62 | 0 | 0.0 | 3.0 | 0.00 | 0.00 | 0.00 | 48 | 1016.4 |
| 20260509212040 | 62 | 0 | 0.0 | 3.0 | 0.00 | 0.00 | 0.00 | 48 | 1016.4 |
| 20260509211540 | 61 | 23 | 0.0 | 3.0 | 0.00 | 0.00 | 0.00 | 49 | 1016.4 |
| 20260509211040 | 61 | 37 | 0.0 | 3.0 | 0.00 | 0.00 | 0.00 | 48 | 1016.4 |
| 20260509210543 | 61 | 60 | 0.0 | 3.0 | 0.00 | 0.00 | 0.00 | 49 | 1016.4 |
| 20260509210040 | 61 | 340 | 0.0 | 3.0 | 0.00 | 0.00 | 0.00 | 48 | 1016.5 |
| 20260509205540 | 61 | 326 | 0.0 | 1.0 | 0.00 | 0.00 | 0.00 | 48 | 1016.5 |
| 20260509205040 | 61 | 340 | 0.0 | 4.0 | 0.00 | 0.00 | 0.00 | 49 | 1016.5 |
| 20260509204540 | 61 | 0 | 0.0 | 4.0 | 0.00 | 0.00 | 0.00 | 48 | 1016.5 |
| 20260509204040 | 61 | 280 | 0.0 | 4.0 | 0.00 | 0.00 | 0.00 | 49 | 1016.6 |
| 20260509203540 | 61 | 0 | 0.0 | 0.0 | 0.00 | 0.00 | 0.00 | 49 | 1016.6 |
| 20260509203040 | 61 | 0 | 0.0 | 0.0 | 0.00 | 0.00 | 0.00 | 49 | 1016.6 |
| 20260509202540 | 61 | 0 | 0.0 | 0.0 | 0.00 | 0.00 | 0.00 | 49 | 1016.6 |
| 20260509202040 | 62 | 0 | 0.0 | 0.0 | 0.00 | 0.00 | 0.00 | 48 | 1016.6 |
| 20260509201540 | 62 | 0 | 0.0 | 0.0 | 0.00 | 0.00 | 0.00 | 48 | 1016.7 |
| 20260509201040 | 62 | 0 | 0.0 | 0.0 | 0.00 | 0.00 | 0.00 | 48 | 1016.5 |
| 20260509200540 | 62 | 0 | 0.0 | 0.0 | 0.00 | 0.00 | 0.00 | 49 | 1016.6 |
| 20260509200040 | 61 | 0 | 0.0 | 2.0 | 0.00 | 0.00 | 0.00 | 48 | 1016.6 |
| 20260509195541 | 61 | 0 | 0.0 | 2.0 | 0.00 | 0.00 | 0.00 | 50 | 1016.7 |
| 20260509195040 | 61 | 57 | 0.0 | 2.0 | 0.00 | 0.00 | 0.00 | 49 | 1016.9 |
| 20260509194540 | 60 | 0 | 0.0 | 0.0 | 0.00 | 0.00 | 0.00 | 50 | 1016.9 |
| 20260509194040 | 60 | 0 | 0.0 | 2.0 | 0.00 | 0.00 | 0.00 | 50 | 1017.0 |
| 20260509193540 | 60 | 0 | 0.0 | 2.0 | 0.00 | 0.00 | 0.00 | 50 | 1017.0 |
| 20260509193040 | 60 | 15 | 0.0 | 2.0 | 0.00 | 0.00 | 0.00 | 49 | 1017.1 |
| 20260509192541 | 60 | 32 | 0.0 | 1.0 | 0.00 | 0.00 | 0.00 | 48 | 1017.0 |
| 20260509192040 | 60 | 0 | 0.0 | 0.0 | 0.00 | 0.00 | 0.00 | 47 | 1017.0 |
| 20260509191540 | 60 | 0 | 0.0 | 0.0 | 0.00 | 0.00 | 0.00 | 50 | 1017.0 |
| 20260509191040 | 60 | 32 | 0.0 | 0.0 | 0.00 | 0.00 | 0.00 | 51 | 1017.1 |
| 20260509190539 | 59 | 0 | 0.0 | 0.0 | 0.00 | 0.00 | 0.00 | 51 | 1017.0 |
| 20260509190040 | 59 | 0 | 0.0 | 0.0 | 0.00 | 0.00 | 0.00 | 52 | 1017.1 |
| 20260509185540 | 59 | 9 | 0.0 | 0.0 | 0.00 | 0.00 | 0.00 | 52 | 1017.1 |
| 20260509185040 | 59 | 0 | 0.0 | 0.0 | 0.00 | 0.00 | 0.00 | 52 | 1017.1 |
| 20260509184539 | 59 | 0 | 0.0 | 0.0 | 0.00 | 0.00 | 0.00 | 52 | 1017.1 |
| 20260509184040 | 59 | 0 | 0.0 | 0.0 | 0.00 | 0.00 | 0.00 | 53 | 1017.1 |
| 20260509183539 | 58 | 9 | 0.0 | 0.0 | 0.00 | 0.00 | 0.00 | 54 | 1017.1 |
| 20260509183039 | 58 | 9 | 0.0 | 2.0 | 0.00 | 0.00 | 0.00 | 52 | 1017.2 |
| 20260509182541 | 58 | 0 | 0.0 | 2.0 | 0.00 | 0.00 | 0.00 | 55 | 1017.2 |
| 20260509182039 | 58 | 63 | 0.0 | 2.0 | 0.00 | 0.00 | 0.00 | 55 | 1017.0 |
| 20260509181539 | 58 | 0 | 0.0 | 0.0 | 0.00 | 0.00 | 0.00 | 55 | 1017.0 |
| 20260509181041 | 57 | 0 | 0.0 | 0.0 | 0.00 | 0.00 | 0.00 | 56 | 1017.1 |
| 20260509180540 | 57 | 0 | 0.0 | 0.0 | 0.00 | 0.00 | 0.00 | 56 | 1017.0 |
| 20260509180039 | 57 | 0 | 0.0 | 1.0 | 0.00 | 0.00 | 0.00 | 55 | 1017.1 |
| 20260509175539 | 57 | 238 | 0.0 | 1.0 | 0.00 | 0.00 | 0.00 | 56 | 1017.0 |
| 20260509175040 | 57 | 277 | 0.0 | 1.0 | 0.00 | 0.00 | 0.00 | 56 | 1017.0 |
| 20260509174544 | 57 | 148 | 0.0 | 1.0 | 0.00 | 0.00 | 0.00 | 56 | 1017.0 |
| 20260509174039 | 57 | 96 | 0.0 | 1.0 | 0.00 | 0.00 | 0.00 | 57 | 1017.0 |
| 20260509173539 | 56 | 0 | 0.0 | 1.0 | 0.00 | 0.00 | 0.00 | 58 | 1017.1 |
| 20260509173039 | 56 | 357 | 0.0 | 1.0 | 0.00 | 0.00 | 0.00 | 55 | 1017.0 |
| 20260509172542 | 56 | 14 | 0.0 | 0.0 | 0.00 | 0.00 | 0.00 | 57 | 1017.0 |
| 20260509172039 | 56 | 0 | 0.0 | 0.0 | 0.00 | 0.00 | 0.00 | 56 | 1017.0 |
| 20260509171539 | 56 | 243 | 0.0 | 2.0 | 0.00 | 0.00 | 0.00 | 56 | 1017.0 |
| 20260509171039 | 56 | 0 | 0.0 | 2.0 | 0.00 | 0.00 | 0.00 | 55 | 1017.0 |
| 20260509170539 | 55 | 243 | 0.0 | 2.0 | 0.00 | 0.00 | 0.00 | 57 | 1017.0 |
| 20260509170041 | 55 | 0 | 0.0 | 0.0 | 0.00 | 0.00 | 0.00 | 57 | 1017.0 |
| 20260509165539 | 55 | 0 | 0.0 | 0.0 | 0.00 | 0.00 | 0.00 | 55 | 1017.1 |
| 20260509165039 | 55 | 65 | 0.0 | 0.0 | 0.00 | 0.00 | 0.00 | 57 | 1016.9 |
| 20260509164539 | 55 | 84 | 0.0 | 4.0 | 0.00 | 0.00 | 0.00 | 58 | 1016.9 |
| 20260509164039 | 55 | 109 | 0.0 | 4.0 | 0.00 | 0.00 | 0.00 | 60 | 1016.7 |
| 20260509163539 | 54 | 110 | 0.0 | 4.0 | 0.00 | 0.00 | 0.00 | 60 | 1016.7 |
| 20260509163039 | 54 | 114 | 0.0 | 2.0 | 0.00 | 0.00 | 0.00 | 59 | 1016.9 |
| 20260509162539 | 54 | 169 | 0.0 | 2.0 | 0.00 | 0.00 | 0.00 | 61 | 1016.9 |
| 20260509162039 | 54 | 93 | 0.0 | 2.0 | 0.00 | 0.00 | 0.00 | 62 | 1016.7 |
| 20260509161539 | 53 | 106 | 0.0 | 2.0 | 0.00 | 0.00 | 0.00 | 62 | 1016.7 |
| 20260509161039 | 53 | 119 | 0.0 | 2.0 | 0.00 | 0.00 | 0.00 | 63 | 1016.7 |
| 20260509160539 | 53 | 109 | 0.0 | 3.0 | 0.00 | 0.00 | 0.00 | 64 | 1016.7 |
| 20260509160039 | 53 | 70 | 1.0 | 3.0 | 0.00 | 0.00 | 0.00 | 65 | 1016.9 |
| 20260509155539 | 52 | 126 | 0.0 | 3.0 | 0.00 | 0.00 | 0.00 | 65 | 1016.9 |
| 20260509155039 | 52 | 109 | 0.0 | 2.0 | 0.00 | 0.00 | 0.00 | 65 | 1017.0 |
| 20260509154539 | 52 | 86 | 0.0 | 2.0 | 0.00 | 0.00 | 0.00 | 66 | 1017.0 |
| 20260509154039 | 52 | 99 | 0.0 | 2.0 | 0.00 | 0.00 | 0.00 | 66 | 1017.0 |
| 20260509153539 | 52 | 239 | 0.0 | 0.0 | 0.00 | 0.00 | 0.00 | 66 | 1017.0 |
| 20260509153039 | 52 | 239 | 0.0 | 0.0 | 0.00 | 0.00 | 0.00 | 67 | 1017.1 |
| 20260509152540 | 51 | 239 | 0.0 | 3.0 | 0.00 | 0.00 | 0.00 | 67 | 1017.1 |
| 20260509152040 | 51 | 239 | 0.0 | 3.0 | 0.00 | 0.00 | 0.00 | 67 | 1017.1 |
| 20260509151540 | 51 | 72 | 0.0 | 3.0 | 0.00 | 0.00 | 0.00 | 67 | 1017.0 |
| 20260509151039 | 51 | 72 | 0.0 | 0.0 | 0.00 | 0.00 | 0.00 | 68 | 1017.0 |
| 20260509150539 | 50 | 0 | 0.0 | 0.0 | 0.00 | 0.00 | 0.00 | 68 | 1017.0 |
| 20260509150039 | 50 | 0 | 0.0 | 0.0 | 0.00 | 0.00 | 0.00 | 69 | 1017.1 |
| 20260509145539 | 50 | 0 | 0.0 | 0.0 | 0.00 | 0.00 | 0.00 | 70 | 1017.1 |
| 20260509145039 | 50 | 0 | 0.0 | 0.0 | 0.00 | 0.00 | 0.00 | 70 | 1017.2 |
| 20260509144539 | 50 | 0 | 0.0 | 0.0 | 0.00 | 0.00 | 0.00 | 70 | 1017.2 |
| 20260509144039 | 50 | 0 | 0.0 | 0.0 | 0.00 | 0.00 | 0.00 | 70 | 1017.2 |
| 20260509143539 | 50 | 0 | 0.0 | 0.0 | 0.00 | 0.00 | 0.00 | 69 | 1017.3 |
| 20260509143041 | 49 | 0 | 0.0 | 0.0 | 0.00 | 0.00 | 0.00 | 70 | 1017.3 |
| 20260509142541 | 49 | 0 | 0.0 | 0.0 | 0.00 | 0.00 | 0.00 | 70 | 1017.3 |
| 20260509142041 | 49 | 0 | 0.0 | 0.0 | 0.00 | 0.00 | 0.00 | 71 | 1017.3 |
| 20260509141539 | 49 | 0 | 0.0 | 0.0 | 0.00 | 0.00 | 0.00 | 70 | 1017.4 |
| 20260509141040 | 49 | 0 | 0.0 | 0.0 | 0.00 | 0.00 | 0.00 | 71 | 1017.3 |
| 20260509140539 | 49 | 0 | 0.0 | 0.0 | 0.00 | 0.00 | 0.00 | 71 | 1017.2 |
| 20260509140042 | 48 | 0 | 0.0 | 0.0 | 0.00 | 0.00 | 0.00 | 71 | 1017.1 |
| 20260509135539 | 48 | 0 | 0.0 | 0.0 | 0.00 | 0.00 | 0.00 | 72 | 1017.0 |
| 20260509135039 | 48 | 0 | 0.0 | 0.0 | 0.00 | 0.00 | 0.00 | 73 | 1016.9 |
| 20260509134539 | 48 | 0 | 0.0 | 0.0 | 0.00 | 0.00 | 0.00 | 72 | 1016.9 |
| 20260509134039 | 48 | 0 | 0.0 | 0.0 | 0.00 | 0.00 | 0.00 | 73 | 1017.0 |
| 20260509133539 | 48 | 0 | 0.0 | 0.0 | 0.00 | 0.00 | 0.00 | 73 | 1017.1 |
| 20260509133039 | 47 | 0 | 0.0 | 0.0 | 0.00 | 0.00 | 0.00 | 73 | 1017.0 |
| 20260509132540 | 47 | 0 | 0.0 | 0.0 | 0.00 | 0.00 | 0.00 | 73 | 1017.0 |
| 20260509132039 | 47 | 0 | 0.0 | 0.0 | 0.00 | 0.00 | 0.00 | 73 | 1017.0 |
| 20260509131539 | 47 | 0 | 0.0 | 0.0 | 0.00 | 0.00 | 0.00 | 73 | 1017.0 |
| 20260509131039 | 46 | 0 | 0.0 | 0.0 | 0.00 | 0.00 | 0.00 | 75 | 1017.0 |
| 20260509130541 | 46 | 0 | 0.0 | 0.0 | 0.00 | 0.00 | 0.00 | 75 | 1017.1 |
| 20260509130039 | 46 | 0 | 0.0 | 0.0 | 0.00 | 0.00 | 0.00 | 75 | 1017.2 |
| 20260509125540 | 46 | 0 | 0.0 | 0.0 | 0.00 | 0.00 | 0.00 | 75 | 1017.1 |
| 20260509125039 | 46 | 0 | 0.0 | 0.0 | 0.00 | 0.00 | 0.00 | 75 | 1017.2 |
| 20260509124539 | 46 | 0 | 0.0 | 0.0 | 0.00 | 0.00 | 0.00 | 75 | 1017.2 |
| 20260509124039 | 46 | 0 | 0.0 | 0.0 | 0.00 | 0.00 | 0.00 | 75 | 1017.2 |
| 20260509123539 | 46 | 0 | 0.0 | 0.0 | 0.00 | 0.00 | 0.00 | 75 | 1017.3 |
| 20260509123039 | 46 | 0 | 0.0 | 0.0 | 0.00 | 0.00 | 0.00 | 76 | 1017.3 |
| 20260509122539 | 46 | 0 | 0.0 | 0.0 | 0.00 | 0.00 | 0.00 | 76 | 1017.4 |
| 20260509122039 | 46 | 0 | 0.0 | 0.0 | 0.00 | 0.00 | 0.00 | 76 | 1017.4 |
| 20260509121539 | 46 | 0 | 0.0 | 0.0 | 0.00 | 0.00 | 0.00 | 76 | 1017.5 |
| 20260509121041 | 46 | 0 | 0.0 | 0.0 | 0.00 | 0.00 | 0.00 | 76 | 1017.4 |
| 20260509120539 | 46 | 0 | 0.0 | 0.0 | 0.00 | 0.00 | 0.00 | 76 | 1017.5 |
| 20260509120039 | 46 | 0 | 0.0 | 0.0 | 0.00 | 0.00 | 0.00 | 77 | 1017.5 |
| 20260509115541 | 46 | 0 | 0.0 | 0.0 | 0.00 | 0.00 | 0.00 | 77 | 1017.6 |
| 20260509115039 | 46 | 0 | 0.0 | 0.0 | 0.00 | 0.00 | 0.00 | 77 | 1017.7 |
| 20260509114539 | 45 | 0 | 0.0 | 0.0 | 0.00 | 0.00 | 0.00 | 77 | 1017.9 |
| 20260509114039 | 45 | 0 | 0.0 | 0.0 | 0.00 | 0.00 | 0.00 | 77 | 1017.7 |
| 20260509113539 | 45 | 0 | 0.0 | 0.0 | 0.00 | 0.00 | 0.00 | 77 | 1017.7 |
| 20260509113039 | 45 | 0 | 0.0 | 0.0 | 0.00 | 0.00 | 0.00 | 77 | 1017.7 |
| 20260509112539 | 45 | 0 | 0.0 | 0.0 | 0.00 | 0.00 | 0.00 | 77 | 1017.7 |
| 20260509112039 | 45 | 0 | 0.0 | 0.0 | 0.00 | 0.00 | 0.00 | 77 | 1017.7 |
| 20260509111540 | 45 | 0 | 0.0 | 0.0 | 0.00 | 0.00 | 0.00 | 77 | 1017.7 |
| 20260509111039 | 45 | 0 | 0.0 | 0.0 | 0.00 | 0.00 | 0.00 | 77 | 1017.7 |
| 20260509110539 | 45 | 0 | 0.0 | 0.0 | 0.00 | 0.00 | 0.00 | 77 | 1017.7 |
| 20260509110039 | 45 | 0 | 0.0 | 0.0 | 0.00 | 0.00 | 0.00 | 77 | 1017.6 |
| 20260509105539 | 45 | 0 | 0.0 | 0.0 | 0.00 | 0.00 | 0.00 | 77 | 1017.7 |
| 20260509105042 | 45 | 0 | 0.0 | 0.0 | 0.00 | 0.00 | 0.00 | 76 | 1017.6 |
| 20260509104539 | 45 | 0 | 0.0 | 0.0 | 0.00 | 0.00 | 0.00 | 77 | 1017.7 |
| 20260509104040 | 45 | 0 | 0.0 | 0.0 | 0.00 | 0.00 | 0.00 | 77 | 1017.9 |
| 20260509103539 | 45 | 0 | 0.0 | 0.0 | 0.00 | 0.00 | 0.00 | 77 | 1017.9 |
| 20260509103039 | 45 | 0 | 0.0 | 0.0 | 0.00 | 0.00 | 0.00 | 76 | 1018.0 |
| 20260509102539 | 45 | 0 | 0.0 | 0.0 | 0.00 | 0.00 | 0.00 | 77 | 1018.0 |
| 20260509102039 | 45 | 0 | 0.0 | 0.0 | 0.00 | 0.00 | 0.00 | 77 | 1018.1 |
| 20260509101539 | 45 | 0 | 0.0 | 0.0 | 0.00 | 0.00 | 0.00 | 76 | 1018.1 |
| 20260509101039 | 46 | 0 | 0.0 | 0.0 | 0.00 | 0.00 | 0.00 | 76 | 1018.2 |
| 20260509100538 | 46 | 0 | 0.0 | 0.0 | 0.00 | 0.00 | 0.00 | 76 | 1018.1 |
| 20260509100039 | 46 | 0 | 0.0 | 0.0 | 0.00 | 0.00 | 0.00 | 76 | 1018.2 |
| 20260509095539 | 46 | 0 | 0.0 | 0.0 | 0.00 | 0.00 | 0.00 | 76 | 1018.1 |
| 20260509095039 | 46 | 0 | 0.0 | 0.0 | 0.00 | 0.00 | 0.00 | 76 | 1018.2 |
| 20260509094038 | 46 | 0 | 0.0 | 0.0 | 0.00 | 0.00 | 0.00 | 76 | 1018.2 |
| 20260509093538 | 46 | 72 | 0.0 | 0.0 | 0.00 | 0.00 | 0.00 | 76 | 1018.1 |
| 20260509093039 | 46 | 0 | 0.0 | 0.0 | 0.00 | 0.00 | 0.00 | 76 | 1018.2 |
| 20260509092539 | 45 | 0 | 0.0 | 0.0 | 0.00 | 0.00 | 0.00 | 76 | 1018.1 |
| 20260509092038 | 46 | 0 | 0.0 | 0.0 | 0.00 | 0.00 | 0.00 | 76 | 1018.1 |
| 20260509091538 | 46 | 0 | 0.0 | 3.0 | 0.00 | 0.00 | 0.00 | 76 | 1018.2 |
| 20260509091038 | 46 | 0 | 0.0 | 3.0 | 0.00 | 0.00 | 0.00 | 76 | 1018.2 |
| 20260509090538 | 46 | 107 | 0.0 | 3.0 | 0.00 | 0.00 | 0.00 | 76 | 1018.2 |
| 20260509090038 | 46 | 0 | 0.0 | 1.0 | 0.00 | 0.00 | 0.00 | 76 | 1018.3 |
| 20260509085538 | 46 | 91 | 0.0 | 1.0 | 0.00 | 0.00 | 0.00 | 76 | 1018.3 |
| 20260509085038 | 46 | 0 | 0.0 | 0.0 | 0.00 | 0.00 | 0.00 | 76 | 1018.3 |
| 20260509084538 | 46 | 0 | 0.0 | 1.0 | 0.00 | 0.00 | 0.00 | 75 | 1018.4 |
| 20260509084038 | 46 | 91 | 0.0 | 1.0 | 0.00 | 0.00 | 0.00 | 75 | 1018.4 |
| 20260509083538 | 46 | 343 | 0.0 | 1.0 | 0.00 | 0.00 | 0.00 | 75 | 1018.4 |
| 20260509083038 | 46 | 0 | 0.0 | 0.0 | 0.00 | 0.00 | 0.00 | 75 | 1018.4 |
| 20260509082540 | 46 | 0 | 0.0 | 0.0 | 0.00 | 0.00 | 0.00 | 75 | 1018.4 |
| 20260509082038 | 46 | 0 | 0.0 | 0.0 | 0.00 | 0.00 | 0.00 | 75 | 1018.4 |
| 20260509081539 | 46 | 343 | 0.0 | 0.0 | 0.00 | 0.00 | 0.00 | 74 | 1018.4 |
| 20260509081038 | 46 | 0 | 0.0 | 0.0 | 0.00 | 0.00 | 0.00 | 74 | 1018.3 |
| 20260509080538 | 46 | 0 | 0.0 | 0.0 | 0.00 | 0.00 | 0.00 | 74 | 1018.4 |
| 20260509080038 | 46 | 0 | 0.0 | 1.0 | 0.00 | 0.00 | 0.00 | 74 | 1018.4 |
| 20260509075538 | 46 | 0 | 0.0 | 1.0 | 0.00 | 0.00 | 0.00 | 74 | 1018.4 |
| 20260509075038 | 46 | 343 | 0.0 | 1.0 | 0.00 | 0.00 | 0.00 | 73 | 1018.4 |
| 20260509074538 | 46 | 0 | 0.0 | 0.0 | 0.00 | 0.00 | 0.00 | 73 | 1018.5 |
| 20260509074038 | 46 | 0 | 0.0 | 0.0 | 0.00 | 0.00 | 0.00 | 72 | 1018.5 |
| 20260509073540 | 46 | 0 | 0.0 | 0.0 | 0.00 | 0.00 | 0.00 | 72 | 1018.5 |
| 20260509073038 | 47 | 0 | 0.0 | 0.0 | 0.00 | 0.00 | 0.00 | 72 | 1018.5 |
| 20260509072540 | 46 | 0 | 0.0 | 0.0 | 0.00 | 0.00 | 0.00 | 72 | 1018.5 |
| 20260509072038 | 47 | 0 | 0.0 | 0.0 | 0.00 | 0.00 | 0.00 | 72 | 1018.6 |
| 20260509071538 | 47 | 0 | 0.0 | 0.0 | 0.00 | 0.00 | 0.00 | 72 | 1018.5 |
| 20260509071040 | 47 | 0 | 0.0 | 0.0 | 0.00 | 0.00 | 0.00 | 72 | 1018.5 |
| 20260509070538 | 47 | 0 | 0.0 | 0.0 | 0.00 | 0.00 | 0.00 | 72 | 1018.6 |
| 20260509070038 | 47 | 0 | 0.0 | 0.0 | 0.00 | 0.00 | 0.00 | 71 | 1018.7 |
| 20260509065538 | 47 | 0 | 0.0 | 0.0 | 0.00 | 0.00 | 0.00 | 72 | 1018.7 |
| 20260509065038 | 47 | 0 | 0.0 | 0.0 | 0.00 | 0.00 | 0.00 | 72 | 1018.7 |
| 20260509064538 | 47 | 0 | 0.0 | 0.0 | 0.00 | 0.00 | 0.00 | 71 | 1018.9 |
| 20260509064038 | 47 | 0 | 0.0 | 0.0 | 0.00 | 0.00 | 0.00 | 71 | 1018.9 |
| 20260509063538 | 47 | 0 | 0.0 | 0.0 | 0.00 | 0.00 | 0.00 | 71 | 1018.9 |
| 20260509063039 | 47 | 0 | 0.0 | 0.0 | 0.00 | 0.00 | 0.00 | 71 | 1019.0 |
| 20260509062540 | 47 | 0 | 0.0 | 0.0 | 0.00 | 0.00 | 0.00 | 72 | 1019.0 |
| 20260509062038 | 47 | 0 | 0.0 | 0.0 | 0.00 | 0.00 | 0.00 | 72 | 1019.0 |
| 20260509061538 | 47 | 0 | 0.0 | 0.0 | 0.00 | 0.00 | 0.00 | 71 | 1019.0 |
| 20260509061038 | 47 | 0 | 0.0 | 0.0 | 0.00 | 0.00 | 0.00 | 72 | 1019.0 |
| 20260509060538 | 47 | 0 | 0.0 | 0.0 | 0.00 | 0.00 | 0.00 | 72 | 1019.0 |
| 20260509060038 | 47 | 0 | 0.0 | 0.0 | 0.00 | 0.00 | 0.00 | 72 | 1019.0 |
| 20260509055538 | 47 | 0 | 0.0 | 0.0 | 0.00 | 0.00 | 0.00 | 73 | 1019.0 |
| 20260509055038 | 47 | 0 | 0.0 | 0.0 | 0.00 | 0.00 | 0.00 | 72 | 1019.0 |
| 20260509054538 | 47 | 0 | 0.0 | 0.0 | 0.00 | 0.00 | 0.00 | 72 | 1019.0 |
| 20260509054038 | 47 | 0 | 0.0 | 0.0 | 0.00 | 0.00 | 0.00 | 73 | 1019.0 |
| 20260509053538 | 47 | 0 | 0.0 | 0.0 | 0.00 | 0.00 | 0.00 | 73 | 1019.1 |
| 20260509053038 | 47 | 0 | 0.0 | 0.0 | 0.00 | 0.00 | 0.00 | 73 | 1019.1 |
| 20260509052540 | 47 | 0 | 0.0 | 0.0 | 0.00 | 0.00 | 0.00 | 73 | 1019.1 |
| 20260509052039 | 47 | 0 | 0.0 | 0.0 | 0.00 | 0.00 | 0.00 | 73 | 1019.1 |
| 20260509051538 | 47 | 0 | 0.0 | 0.0 | 0.00 | 0.00 | 0.00 | 73 | 1019.1 |
| 20260509051038 | 47 | 0 | 0.0 | 0.0 | 0.00 | 0.00 | 0.00 | 73 | 1019.1 |
| 20260509050538 | 47 | 0 | 0.0 | 0.0 | 0.00 | 0.00 | 0.00 | 73 | 1019.0 |
| 20260509050038 | 46 | 0 | 0.0 | 0.0 | 0.00 | 0.00 | 0.00 | 73 | 1019.0 |
| 20260509045538 | 46 | 0 | 0.0 | 0.0 | 0.00 | 0.00 | 0.00 | 73 | 1018.9 |
| 20260509045038 | 46 | 0 | 0.0 | 0.0 | 0.00 | 0.00 | 0.00 | 73 | 1018.9 |
| 20260509044538 | 46 | 0 | 0.0 | 0.0 | 0.00 | 0.00 | 0.00 | 73 | 1018.9 |
| 20260509044038 | 47 | 0 | 0.0 | 0.0 | 0.00 | 0.00 | 0.00 | 73 | 1018.9 |
| 20260509043538 | 47 | 0 | 0.0 | 0.0 | 0.00 | 0.00 | 0.00 | 73 | 1018.9 |
| 20260509043038 | 47 | 0 | 0.0 | 0.0 | 0.00 | 0.00 | 0.00 | 73 | 1018.9 |
| 20260509042039 | 47 | 343 | 0.0 | 0.0 | 0.00 | 0.00 | 0.00 | 73 | 1018.7 |
| 20260509041538 | 47 | 0 | 0.0 | 0.0 | 0.00 | 0.00 | 0.00 | 73 | 1018.7 |
| 20260509041039 | 47 | 0 | 0.0 | 0.0 | 0.00 | 0.00 | 0.00 | 73 | 1018.7 |
| 20260509040538 | 47 | 0 | 0.0 | 0.0 | 0.00 | 0.00 | 0.00 | 72 | 1018.6 |
| 20260509040038 | 48 | 0 | 0.0 | 0.0 | 0.00 | 0.00 | 0.00 | 71 | 1018.6 |
| 20260509035540 | 48 | 0 | 0.0 | 0.0 | 0.00 | 0.00 | 0.00 | 70 | 1018.6 |
| 20260509035038 | 48 | 0 | 0.0 | 0.0 | 0.00 | 0.00 | 0.00 | 70 | 1018.6 |
| 20260509034542 | 48 | 0 | 0.0 | 0.0 | 0.00 | 0.00 | 0.00 | 69 | 1018.6 |
| 20260509034039 | 49 | 0 | 0.0 | 0.0 | 0.00 | 0.00 | 0.00 | 69 | 1018.6 |
| 20260509033538 | 49 | 317 | 0.0 | 1.0 | 0.00 | 0.00 | 0.00 | 69 | 1018.5 |
| 20260509033038 | 49 | 333 | 0.0 | 1.0 | 0.00 | 0.00 | 0.00 | 68 | 1018.5 |
| 20260509032538 | 49 | 280 | 0.0 | 1.0 | 0.00 | 0.00 | 0.00 | 68 | 1018.9 |
| 20260509032038 | 49 | 0 | 0.0 | 0.0 | 0.00 | 0.00 | 0.00 | 67 | 1018.5 |
| 20260509031538 | 50 | 336 | 0.0 | 0.0 | 0.00 | 0.00 | 0.00 | 68 | 1018.5 |
| 20260509031038 | 50 | 338 | 0.0 | 0.0 | 0.00 | 0.00 | 0.00 | 67 | 1018.7 |
| 20260509030538 | 50 | 323 | 0.0 | 0.0 | 0.00 | 0.00 | 0.00 | 67 | 1018.6 |
| 20260509030038 | 51 | 0 | 0.0 | 0.0 | 0.00 | 0.00 | 0.00 | 67 | 1018.5 |
| 20260509025538 | 51 | 0 | 0.0 | 0.0 | 0.00 | 0.00 | 0.00 | 66 | 1018.6 |